Regional Weather Roundup
Issued by NWS Green Bay, WI

Home | Current Version | Previous Version | Graphics & Text | Print | Product List | Glossary Off
Versions: 1 2 3 4 5 6 7 8 9 10 11 12 13 14 15 16 17 18 19 20 21 22 23 24 25 26 27 28 29 30 31 32 33 34 35 36 37 38 39 40 41 42 43 44 45 46 47 48 49 50

115
ASUS43 KGRB 090911
RWRGRB

NORTH-CENTRAL AND NORTHEAST WISCONSIN REGIONAL WEATHER ROUNDUP
NATIONAL WEATHER SERVICE GREEN BAY WI
300 AM CST FRI DEC 09 2016

WIZ005-009-010>012-018-019-091000-
NORTH CENTRAL WISCONSIN

CITY           SKY/WX    TMP DP  RH WIND       PRES   REMARKS
IRONWOOD       LGT SNOW  18  14  86 W12       30.38S FOG     WCI   5
MANITOWISH WTR LGT SNOW  15  14  96 W7        30.34S WCI   5
ARBOR VITAE    LGT SNOW  17  13  84 NW8       30.34R WCI   6
EAGLE RIVER    CLOUDY    16  10  75 NW8       30.32S WCI   5
LAND O LAKES   PTCLDY    16  11  82 NW6       30.33S WCI   7
RHINELANDER    CLOUDY    17  12  80 W9        30.34R WCI   6
PHILLIPS       MOCLDY    12   8  81 CALM      30.38R
ANTIGO         CLOUDY    17  11  78 NW12      30.34S WCI   4
TOMAHAWK       CLOUDY    15  10  78 W7        30.38R WCI   6
MERRILL        CLOUDY    18  10  73 NW7       30.39R WCI   8
$$

WIZ013-073-091000-
NORTHEAST WISCONSIN

CITY           SKY/WX    TMP DP  RH WIND       PRES   REMARKS
IRON MOUNTAIN  CLEAR     16   9  74 NW9       30.31R WCI   4
MARINETTE      CLEAR     21  13  71 VRB6      30.36R
OCONTO         PTCLDY    17  11  78 W6        30.37S WCI   9
$$

WIZ017-030-035>037-045-091000-
CENTRAL WISCONSIN

CITY           SKY/WX    TMP DP  RH WIND       PRES   REMARKS
MEDFORD        CLOUDY    17  12  82 NW8       30.38R WCI   6
WAUSAU         CLOUDY    19  14  81 NW13      30.37R WCI   6
MOSINEE        CLOUDY    19  16  86 NW12      30.39S WCI   7
MARSHFIELD     CLOUDY    17  10  74 NW13      30.40R WCI   4
WISC RAPIDS    PTCLDY    17  12  80 NW8       30.43R WCI   7
STEVENS POINT  CLOUDY    17  11  76 W5        30.40S
WAUPACA        CLEAR     21  13  72 W6        30.41S
SHAWANO        MOCLDY    20  15  79 W5        30.39R
CLINTONVILLE   MOCLDY    19  14  79 W9        30.39S WCI   9
WAUTOMA        NOT AVBL
$$

WIZ038-039-048-051-091000-
FOX VALLEY

CITY           SKY/WX    TMP DP  RH WIND       PRES   REMARKS
NWS GREEN BAY  CLEAR     22  16  78 W9        30.38R
APPLETON       CLEAR     19  12  73 W9        30.37S WCI   9
OSHKOSH        CLEAR     19  13  77 W6        30.40R
FOND DU LAC    CLEAR     20  12  71 W12       30.41R WCI   8
$$

WIZ022-050-052-091000-
EAST CENTRAL WISCONSIN

CITY           SKY/WX    TMP DP  RH WIND       PRES   REMARKS
EPHRAIM        FAIR      22  11  63 NW12G21   30.32S
WASHINGTON ISL PTSUNNY   23  14  69 NW12G17   30.32R
STURGEON BAY   PTCLDY    23  13  65 NW15      30.35R
MANITOWOC      CLEAR     21  15  78 W9        30.38R
SHEBOYGAN      CLEAR     22  14  71 NW12      30.39R
$$

LMZ563-521-522-541>543-091000-
LAKESHORE

STATION/POSITION TIME  TEMP    WIND        PRES    VSBY  WAVE
                       AIR SEA DIR/SP/G                  HT/PER
                 (UTC) (F)     (DEG/KT/KT) (MB)    (MI)  (FT/S)
SHEBOYGAN LKSHOR 0900   23     290/ 10/ 13 1029.9R
KEWAUNEE LKSHORE 0842   22     300/  3/  9 1027.5R
ALGOMA MARINA    0836          320/  7/ 11   N/A
NORTHPORT PIER   0840   26     310/ 18/ 24 1026.8R
SISTER BAY LKSHO 0820   25     310/ 24/ 29   N/A
CHAMBERS ISLAND  0840   23     300/  9/ 19 1027.1R
MENOMINEE LKSHOR 0842   22     280/  8/ 11 1026.9R
$$




USA.gov is the U.S. government's official web portal to all federal, state and local government web resources and services.